Flag for U.S.A. Weather past 2 weeks in Sitka, Alaska, U.S.A.

Now
41 °F

Mostly cloudy.


Feels Like: 37 °F
Forecast: 38 / 45 °F
Wind: 6 mph from Northeast

Location: Sitka Airport

Current Time: Jan 29, 2015 at 11:57:51 AM

Latest Report: Jan 29, 2015 at 10:53 AM


Visibility: 10 mi

Pressure: 30.19 "Hg

Humidity: 89%

Dew point: 38 °F

Location of SitkaLocation

Historic Weather in Sitka — Graph

°F

Sitka temperature yesterday

Maximum temperature yesterday: 46 °F (at 5:53 PM)
Minimum temperature yesterday: 38 °F (at 2:53 AM)
Average temperature yesterday: 43 °F

Past Weeks' High & Low Weather Summary

 TemperatureHumidityPressure
High51 °F (Jan 14, 10:53 AM)100% (Jan 17, 4:00 PM)30.19 "Hg (Jan 17, 4:00 PM)
Low28 °F (Jan 27, 12:53 AM)59% (Jan 15, 10:53 AM)28.95 "Hg (Jan 24, 6:53 PM)
Average43 °F86%29.62 "Hg
* Reported Jan 14 10:53 AM — Jan 29 10:53 AM, Sitka, Weather by CustomWeather, © 2014

Note: Actual official high and low records may vary slightly from our data, if they occured in-between our weather recording intervals... More about our weather records

Advertising

Sitka weather history for previous 24 hours

 ConditionsComfort  
Time TempWeatherWind HumidityBarometerVisibility
10:53 AM
Jan 29
41 °FMostly cloudy.6 mph89%30.19 "Hg10 mi
9:53 AM44 °FMore clouds than sun.6 mph89%30.16 "Hg9 mi
8:53 AM44 °FOvercast.10 mph89%30.13 "Hg10 mi
7:53 AM44 °FMostly cloudy.16 mph93%30.10 "Hg10 mi
6:53 AM43 °FMostly cloudy.6 mph93%30.07 "Hg10 mi
5:53 AM42 °FLight rain. Mostly cloudy.5 mph89%30.06 "Hg10 mi
5:01 AM41 °FMostly cloudy.12 mph93%30.04 "Hg10 mi
3:53 AM42 °FLight rain. Overcast.8 mph100%30.03 "Hg8 mi
2:53 AM42 °FMostly cloudy.7 mph96%30.01 "Hg10 mi
1:53 AM44 °FMostly cloudy.No wind93%30.02 "Hg10 mi
12:53 AM43 °FOvercast.6 mph93%30.01 "Hg10 mi
11:53 PM
Jan 28
43 °FOvercast.10 mph97%30.00 "Hg10 mi
10:53 PM44 °FLow clouds.10 mph96%29.97 "Hg10 mi
9:53 PM44 °FFog.10 mph96%29.95 "Hg3 mi
8:53 PM45 °FMostly cloudy.15 mph93%29.92 "Hg8 mi
7:53 PM44 °FLight rain. Overcast.15 mph85%29.89 "Hg8 mi
6:53 PM45 °FLight rain. Mostly cloudy.15 mph80%29.86 "Hg10 mi
5:53 PM46 °FOvercast.20 mph71%29.84 "Hg10 mi
4:53 PM45 °FOvercast.23 mph74%29.83 "Hg10 mi
3:53 PM44 °FOvercast.24 mph73%29.83 "Hg10 mi
2:53 PM42 °FLight rain. Overcast.24 mph79%29.85 "Hg10 mi
1:53 PM41 °FLight rain. Overcast.22 mph80%29.86 "Hg9 mi
12:53 PM42 °FLight rain. Overcast.21 mph73%29.88 "Hg9 mi
11:53 AM42 °FLight rain. Overcast.23 mph76%29.90 "Hg10 mi
Weather by CustomWeather, © 2014

See weather overviewHow to use our weather pages